Seminole, OK

5:40 PM CST on November 16, 2019 (GMT -0600)
Seminole

Weather History for KSRE - October, 2019

Change the Weather History Date:

Sunday, October 20, 2019

  Actual Average (WUND) Record (WUND)
Temperature  
Mean Temperature 63 °F -  
Max Temperature 82 °F - - (-1)
Min Temperature 44 °F - - (-1)
Degree Days  
Heating Degree Days 2    
Growing Degree Days 13 (Base 50)    
Moisture  
Dew Point 51 °F    
Average Humidity 66    
Maximum Humidity 94    
Minimum Humidity 26    
Precipitation  
Precipitation 0.84 in - - ()
Sea Level Pressure  
Sea Level Pressure 29.71 in    
Wind  
Wind Speed 6 mph ()    
Max Wind Speed 18 mph    
Max Gust Speed 46 mph    
Visibility 7.9 miles    
Events Rain , Thunderstorm    
Averages and records for this station are not official NWS values.
T = Trace of Precipitation, MM = Missing Value Source: Averaged Metar Reports

Daily Weather History Graph

Daily Weather History Graph

Search for Another Location

Airport or City:

Astronomy

Oct. 20, 2019 Rise Set
Actual Time 7:37 AM CDT 6:45 PM CDT
Civil Twilight 7:11 AM CDT 7:11 PM CDT
Nautical Twilight 6:41 AM CDT 7:40 PM CDT
Astronomical Twilight 6:12 AM CDT 8:10 PM CDT
Moon No Moon Rise 1:57 PM CDT (10/20)
Length of Visible Light 11h 59m
Length of Day
11h 08m
Waning Gibbous, 59% of the Moon is Illuminated
Oct 20
Waning Gibbous
Oct 21
Last Quarter
Oct 27
New
Nov 4
First Quarter
Nov 12
Full

Hourly Weather History & Observations

Time (CDT) Temp. Windchill Dew Point Humidity Pressure Visibility Wind Dir Wind Speed Gust Speed Precip Events Conditions
12:35 AM 55.4 °F - 50.0 °F 82% 29.84 in 3.0 mi North 5.8 mph - N/A   Haze
12:55 AM 55.4 °F - 50.0 °F 82% 29.83 in 2.0 mi NNE 5.8 mph - N/A   Haze
1:15 AM 55.4 °F - 50.0 °F 82% 29.83 in 2.0 mi NNE 3.5 mph - N/A   Haze
1:35 AM 51.8 °F - 48.2 °F 88% 29.83 in 10.0 mi NNE 4.6 mph - N/A   Clear
1:55 AM 51.8 °F - 48.2 °F 88% 29.83 in 9.0 mi NE 4.6 mph - N/A   Clear
2:15 AM 51.8 °F - 48.2 °F 88% 29.83 in 8.0 mi NE 3.5 mph - N/A   Clear
2:35 AM 51.8 °F - 48.2 °F 88% 29.83 in 10.0 mi NE 4.6 mph - N/A   Clear
2:55 AM 51.8 °F - 48.2 °F 88% 29.83 in 10.0 mi NE 4.6 mph - N/A   Clear
3:15 AM 51.8 °F - 48.2 °F 88% 29.83 in 9.0 mi Calm Calm - N/A   Clear
3:35 AM 50.0 °F - 48.2 °F 94% 29.82 in 4.0 mi ENE 3.5 mph - N/A   Clear
3:55 AM 48.2 °F - 46.4 °F 93% 29.82 in 3.0 mi Calm Calm - N/A   Clear
4:15 AM 50.0 °F - 48.2 °F 94% 29.81 in 3.0 mi East 3.5 mph - N/A   Clear
4:35 AM 48.2 °F - 46.4 °F 93% 29.81 in 2.5 mi East 3.5 mph - N/A   Clear
4:55 AM 50.0 °F - 48.2 °F 94% 29.80 in 2.0 mi East 4.6 mph - N/A   Clear
5:15 AM 50.0 °F - 46.4 °F 87% 29.80 in 2.5 mi ENE 4.6 mph - N/A   Clear
5:35 AM 50.0 °F - 48.2 °F 94% 29.81 in 7.0 mi Calm Calm - N/A   Clear
5:55 AM 44.6 °F 43.1 °F 42.8 °F 93% 29.82 in 3.0 mi West 3.5 mph - N/A   Clear
6:15 AM 46.4 °F - 44.6 °F 93% 29.82 in 2.0 mi Calm Calm - N/A   Clear
6:35 AM 46.4 °F - 44.6 °F 93% 29.82 in 1.5 mi Calm Calm - N/A   Clear
6:55 AM 44.6 °F - 42.8 °F 93% 29.82 in 9.0 mi Calm Calm - N/A   Clear
7:15 AM 44.6 °F 43.1 °F 42.8 °F 93% 29.82 in 6.0 mi SE 3.5 mph - N/A   Clear
7:35 AM 46.4 °F - 44.6 °F 93% 29.82 in 6.0 mi Calm Calm - N/A   Clear
7:55 AM 48.2 °F - 46.4 °F 93% 29.82 in 5.0 mi Calm Calm - N/A   Clear
8:15 AM 50.0 °F - 48.2 °F 94% 29.81 in 4.0 mi East 3.5 mph - N/A   Clear
8:35 AM 51.8 °F - 50.0 °F 94% 29.81 in 4.0 mi East 4.6 mph - N/A   Clear
8:55 AM 53.6 °F - 51.8 °F 94% 29.80 in 6.0 mi ESE 5.8 mph - N/A   Clear
9:15 AM 57.2 °F - 51.8 °F 82% 29.81 in 9.0 mi SE 4.6 mph - N/A   Clear
9:35 AM - - - N/A% - 10.0 mi North - - N/A   Clear
9:55 AM 60.8 °F - 51.8 °F 72% 29.82 in 10.0 mi SE 6.9 mph - N/A   Clear
10:15 AM 64.4 °F - 53.6 °F 68% 29.81 in 10.0 mi Variable 4.6 mph - N/A   Clear
10:25 AM 64.4 °F - 53.6 °F 68% 29.81 in 10.0 mi SSE 8.1 mph - N/A   Clear
10:55 AM 68.0 °F - 53.6 °F 60% 29.80 in 10.0 mi SSE 8.1 mph 15.0 mph N/A   Clear
11:15 AM 69.8 °F - 51.8 °F 53% 29.80 in 10.0 mi SSE 10.4 mph 18.4 mph N/A   Clear
11:35 AM 71.6 °F - 51.8 °F 50% 29.80 in 9.0 mi South 11.5 mph 17.3 mph N/A   Clear
11:55 AM 71.6 °F - 51.8 °F 50% 29.79 in 10.0 mi SSE 10.4 mph - N/A   Clear
12:15 PM 73.4 °F - 51.8 °F 47% 29.77 in 10.0 mi South 11.5 mph 18.4 mph N/A   Clear
12:35 PM 75.2 °F - 50.0 °F 41% 29.76 in 10.0 mi South 9.2 mph 18.4 mph N/A   Clear
12:55 PM 77.0 °F - 50.0 °F 39% 29.75 in 10.0 mi South 8.1 mph 16.1 mph N/A   Clear
1:15 PM 77.0 °F - 48.2 °F 36% 29.74 in 10.0 mi Variable 6.9 mph 18.4 mph N/A   Clear
1:35 PM 78.8 °F - 48.2 °F 34% 29.72 in 10.0 mi SSW 8.1 mph 17.3 mph N/A   Clear
1:55 PM 80.6 °F - 48.2 °F 32% 29.70 in 10.0 mi South 10.4 mph 18.4 mph N/A   Clear
2:15 PM 80.6 °F - 50.0 °F 34% 29.70 in 10.0 mi SSE 9.2 mph 17.3 mph N/A   Clear
2:35 PM 82.4 °F - 46.4 °F 28% 29.68 in 10.0 mi South 10.4 mph - N/A   Clear
2:55 PM 82.4 °F - 44.6 °F 26% 29.66 in 10.0 mi Variable 6.9 mph 23.0 mph N/A   Clear
3:15 PM 82.4 °F - 46.4 °F 28% 29.65 in 10.0 mi SSE 12.7 mph - N/A   Clear
3:35 PM 82.4 °F - 46.4 °F 28% 29.64 in 10.0 mi South 8.1 mph 18.4 mph N/A   Clear
3:55 PM 82.4 °F - 48.2 °F 30% 29.63 in 10.0 mi SE 16.1 mph 23.0 mph N/A   Clear
4:15 PM 82.4 °F - 48.2 °F 30% 29.62 in 10.0 mi SSE 15.0 mph 23.0 mph N/A   Clear
4:35 PM 82.4 °F - 48.2 °F 30% 29.61 in 10.0 mi South 11.5 mph 24.2 mph N/A   Clear
4:55 PM 82.4 °F - 48.2 °F 30% 29.61 in 10.0 mi SSE 16.1 mph 23.0 mph N/A   Clear
5:15 PM 80.6 °F - 50.0 °F 34% 29.62 in 10.0 mi South 11.5 mph 21.9 mph N/A   Clear
5:35 PM 80.6 °F - 50.0 °F 34% 29.61 in 10.0 mi SSE 9.2 mph 20.7 mph N/A   Clear
5:55 PM 80.6 °F - 50.0 °F 34% 29.61 in 10.0 mi SSE 8.1 mph 17.3 mph N/A   Clear
6:15 PM 78.8 °F - 50.0 °F 36% 29.60 in 10.0 mi SSE 11.5 mph - N/A   Clear
6:35 PM 77.0 °F - 50.0 °F 39% 29.60 in 10.0 mi SSE 8.1 mph 16.1 mph N/A   Clear
6:55 PM 77.0 °F - 51.8 °F 41% 29.59 in 10.0 mi SE 6.9 mph 12.7 mph N/A   Clear
7:15 PM 75.2 °F - 51.8 °F 44% 29.59 in 10.0 mi SE 8.1 mph - N/A   Scattered Clouds
7:35 PM 75.2 °F - 51.8 °F 44% 29.58 in 10.0 mi SE 9.2 mph 16.1 mph N/A   Mostly Cloudy
7:55 PM 75.2 °F - 53.6 °F 47% 29.58 in 10.0 mi SE 4.6 mph 16.1 mph N/A   Overcast
8:15 PM 75.2 °F - 53.6 °F 47% 29.56 in 10.0 mi SE 10.4 mph 17.3 mph N/A   Mostly Cloudy
8:35 PM 73.4 °F - 55.4 °F 53% 29.53 in 10.0 mi SE 12.7 mph 20.7 mph N/A   Mostly Cloudy
8:55 PM 69.8 °F - 59.0 °F 68% 29.47 in 9.0 mi SE 12.7 mph 24.2 mph N/A Rain , Thunderstorm Rain
9:15 PM 69.8 °F - 62.6 °F 78% 29.50 in 3.0 mi SSW 5.8 mph 23.0 mph N/A Rain , Thunderstorm Rain
9:35 PM 68.0 °F - 62.6 °F 83% 29.49 in 10.0 mi SSE 9.2 mph - N/A Thunderstorm Mostly Cloudy
9:55 PM 69.8 °F - 64.4 °F 83% 29.49 in 10.0 mi South 10.4 mph 23.0 mph 0.09 in Rain , Thunderstorm Rain
10:15 PM 68.0 °F - 62.6 °F 83% 29.53 in 0.5 mi West 10.4 mph 46.0 mph N/A Rain , Thunderstorm Heavy Thunderstorms and Rain
10:35 PM 62.6 °F - 59.0 °F 88% 29.52 in 6.0 mi SSE 6.9 mph 13.8 mph N/A Rain Light Rain
10:55 PM 62.6 °F - 59.0 °F 88% 29.56 in 10.0 mi North - - 0.74 in   Scattered Clouds
11:15 PM 62.6 °F - 60.8 °F 94% 29.55 in 10.0 mi WNW 5.8 mph - N/A   Mostly Cloudy
11:35 PM 62.6 °F - 59.0 °F 88% 29.59 in 10.0 mi NW 12.7 mph 29.9 mph N/A   Mostly Cloudy
11:55 PM 60.8 °F - 50.0 °F 68% 29.59 in 10.0 mi NNW 18.4 mph 31.1 mph 0.01 in   Partly Cloudy